Dallesport, WA

5:35 AM PST on February 07, 2016 (GMT -0800)
Columbia Gorge Regional-The Dalles

Weather History for KDLS - January, 2012

Change the Weather History Date:

Tuesday, January 3, 2012

  Actual Average Record
Temperature  
Mean Temperature 38 °F -  
Max Temperature 45 °F 37 °F 58 °F (1953)
Min Temperature 30 °F 27 °F 7 °F (1974)
Degree Days  
Heating Degree Days 28    
Moisture  
Dew Point 32 °F    
Average Humidity 82    
Maximum Humidity 89    
Minimum Humidity 71    
Precipitation  
Precipitation 0.00 in - - ()
Sea Level Pressure  
Sea Level Pressure 30.37 in    
Wind  
Wind Speed 2 mph (SE)    
Max Wind Speed 6 mph    
Max Gust Speed -    
Visibility 10 miles    
Events Rain    
Averages and records for this station are not official NWS values.
T = Trace of Precipitation, MM = Missing Value Source: NWS Daily Summary

Daily Weather History Graph

Daily Weather History Graph

Search for Another Location

Airport or City:

Trip Planner

Search our weather history database for the weather conditions in past years. The results will help you decide how hot, cold, wet, or windy it might be!

Date:

Astronomy

Jan. 03, 2012 Rise Set
Actual Time 7:45 AM PST 4:33 PM PST
Civil Twilight 7:11 AM PST 5:07 PM PST
Nautical Twilight 6:33 AM PST 5:44 PM PST
Astronomical Twilight 5:57 AM PST 6:20 PM PST
Moon 12:27 PM PST (1/3) 2:36 AM PST (1/3)
Length of Visible Light 9h 55m
Length of Day
8h 47m
Waxing Gibbous, 73% of the Moon is Illuminated
Jan 3
Waxing Gibbous
Jan 8
Full
Jan 16
Last Quarter
Jan 22
New
Jan 30
First Quarter

Hourly Weather History & Observations

Time (PST) Temp. Windchill Dew Point Humidity Pressure Visibility Wind Dir Wind Speed Gust Speed Precip Events Conditions
12:53 AM 34.0 °F 31.0 °F 30.0 °F 85% 30.34 in 10.0 mi East 3.5 mph - 0.00 in Rain Light Rain
2:22 AM 33.8 °F 30.8 °F 30.2 °F 87% 30.36 in 10.0 mi SSW 3.5 mph - 0.00 in   Overcast
2:53 AM 34.0 °F 29.8 °F 30.0 °F 85% 30.37 in 9.0 mi NNE 4.6 mph - 0.00 in   Mostly Cloudy
3:09 AM 33.8 °F - 30.2 °F 87% 30.37 in 10.0 mi Calm Calm - N/A   Scattered Clouds
3:53 AM 32.0 °F 28.7 °F 28.9 °F 88% 30.37 in 10.0 mi NE 3.5 mph - N/A   Scattered Clouds
4:53 AM 32.0 °F 26.4 °F 28.0 °F 85% 30.37 in 10.0 mi South 5.8 mph - N/A   Scattered Clouds
6:53 AM 30.9 °F 27.5 °F 27.0 °F 85% 30.38 in 10.0 mi SE 3.5 mph - N/A   Clear
7:53 AM 30.0 °F - 27.0 °F 88% 30.41 in 10.0 mi Calm Calm - N/A   Clear
8:53 AM 32.0 °F 28.7 °F 28.0 °F 85% 30.44 in 10.0 mi South 3.5 mph - N/A   Clear
9:53 AM 35.1 °F - 30.9 °F 85% 30.44 in 8.0 mi Calm Calm - N/A   Clear
10:53 AM 37.0 °F - 32.0 °F 82% 30.42 in 10.0 mi Calm Calm - N/A   Clear
11:53 AM 39.9 °F - 34.0 °F 79% 30.40 in 10.0 mi Calm Calm - N/A   Clear
12:53 PM 44.1 °F - 35.1 °F 71% 30.35 in 10.0 mi Calm Calm - N/A   Clear
1:53 PM 44.1 °F 42.5 °F 36.0 °F 73% 30.33 in 10.0 mi SSW 3.5 mph - N/A   Clear
2:53 PM 45.0 °F - 36.0 °F 71% 30.32 in 10.0 mi Calm Calm - N/A   Clear
3:53 PM 44.1 °F - 36.0 °F 73% 30.32 in 10.0 mi Calm Calm - N/A   Clear
4:53 PM 42.1 °F - 35.1 °F 76% 30.34 in 10.0 mi Calm Calm - N/A   Clear
5:53 PM 39.9 °F 36.7 °F 34.0 °F 79% 30.34 in 10.0 mi ESE 4.6 mph - N/A   Clear
6:53 PM 39.9 °F - 35.1 °F 83% 30.35 in 10.0 mi Calm Calm - N/A   Mostly Cloudy
7:53 PM 41.0 °F - 36.0 °F 82% 30.36 in 10.0 mi Calm Calm - N/A   Mostly Cloudy
8:53 PM 37.9 °F 35.5 °F 34.0 °F 86% 30.35 in 10.0 mi East 3.5 mph - N/A   Clear
9:53 PM 37.9 °F - 34.0 °F 86% 30.35 in 10.0 mi Calm Calm - N/A   Clear
10:53 PM 37.0 °F - 34.0 °F 89% 30.32 in 8.0 mi Calm Calm - N/A   Clear